[[{"header":{"parameterUnit":"m.s-1","parameterCategory":1,"la1":30.2991,"la2":30.254,"lo1":-89.0895,"lo2":-89.0444,"dy":0.0017,"dx":0.0017,"nx":28,"ny":28,"refTime":"2025-06-09T09:00:00:Z","depth":0,"parameterNumber":2,"parameterNumberName":"U-component_of_WINDS"},"data":[0,0,0,0,0,0,0,0,0,0,0,0,0,0,0,0,0,0,0,0,0,0,0,0,0,0,0,0,0,0,0,0,0,0,0,0,0,0,0,0,0,0,0,0,0,0,0,0,0,0,0,0,0,0,0,0,0,0,4.4399,4.44,0,4.4558,4.4559,4.4561,4.4495,4.4491,4.4487,4.4484,4.465,4.4658,4.4666,0,0,0,0,0,0,0,0,0,0,0,0,0,4.4038,4.4045,4.4398,4.44,4.4402,4.4557,4.4559,4.4562,4.4496,4.4491,4.4486,4.4482,4.4647,4.4657,4.4666,0,0,0,0,0,0,0,0,0,0,0,0,0,4.4196,4.4048,4.4398,4.4388,4.4389,4.4557,4.4559,4.4562,4.4497,4.4491,4.4485,4.448,4.4644,4.4656,4.4668,4.4856,0,0,4.4704,4.4709,0,0,0,0,0,0,0,0,4.4187,4.4209,4.4387,4.4389,4.439,4.45,4.4493,4.4661,4.4498,4.4456,4.4484,4.4477,4.4605,4.462,4.4662,4.4864,4.4871,4.4705,4.4713,4.4718,4.4721,0,0,0,0,0,0,0,4.4176,4.4202,4.4461,4.439,4.4392,4.4376,4.4392,4.4525,4.4561,4.4459,4.4454,4.4474,4.4605,4.4651,4.4666,4.4873,4.4705,4.4716,4.4723,4.4728,4.5234,4.524,0,0,0,0,0,0,4.4165,4.4193,4.4456,4.4466,4.4272,4.4387,4.4405,4.4471,4.4559,4.4567,4.4479,4.447,4.4633,4.4652,4.4671,4.4895,4.4718,4.4729,4.4736,4.5227,4.5235,4.5242,0,0,0,0,0,0,4.4157,4.4189,4.445,4.4329,4.4361,4.4399,4.4474,4.4477,4.4523,4.4574,4.458,4.4519,4.463,4.4655,4.4809,4.49,4.4734,4.4745,4.522,4.523,4.5238,4.5345,0,0,0,0,0,0,4.4147,4.4187,4.4259,4.4331,4.4367,4.4585,4.4479,4.4484,4.4544,4.4534,4.4614,4.4621,4.4627,4.4792,4.4821,4.4913,4.4754,4.5212,4.5224,4.5235,4.5333,4.5356,4.5376,0,0,0,0,0,4.4135,4.4284,4.4263,4.4295,4.4458,4.4591,4.4612,4.4614,4.4551,4.4623,4.4656,4.4619,4.4885,4.4808,4.4841,4.4938,4.5206,4.5221,4.5235,4.5323,4.5352,4.5376,0,0,0,0,0,0,4.4223,4.4293,4.427,4.4447,4.4513,4.4579,4.467,4.4645,4.4731,4.4719,4.4719,4.4738,4.4897,4.4933,4.4846,4.5123,4.5036,4.5058,4.5093,4.512,4.5141,4.5128,4.4764,0,0,0,0,0,4.4263,4.4364,4.442,4.4571,4.4605,4.4632,4.469,4.4686,4.4755,4.4783,4.4827,4.4896,4.4994,4.506,4.5154,4.5339,4.5354,4.5421,4.5443,4.546,4.5478,4.5575,4.5605,4.5288,4.5288,4.5288,0,0,4.4346,4.4397,4.4461,4.459,4.464,4.4745,4.4656,4.4772,4.4849,4.4801,4.4948,4.4983,4.506,4.523,4.5307,4.5265,4.5569,4.5478,4.5492,4.55,4.5593,4.5622,4.5649,4.5298,4.5296,4.5294,0,0,4.4551,4.4601,4.473,4.4782,4.4859,4.4876,4.4907,4.4977,4.4997,4.5145,4.511,4.5203,4.5374,4.5429,4.548,4.5703,4.5672,4.5734,4.5846,4.5941,4.5966,4.5988,4.6065,4.6093,4.5752,4.5753,4.5753,0,4.4645,4.4801,4.48,4.4917,4.4973,4.4933,4.5063,4.5114,4.5219,4.5259,4.521,4.5422,4.5471,4.5651,4.5705,4.5749,4.5783,4.5724,4.5962,4.5984,4.6005,4.6078,4.6107,4.5759,4.5759,4.5758,4.5757,0,4.4911,4.502,4.5115,4.5214,4.5282,4.5405,4.5422,4.5491,4.5481,4.5502,4.5652,4.571,4.5813,4.5856,4.5849,4.6035,4.6006,4.5961,4.5873,4.6042,4.611,4.6139,4.5769,4.5767,4.5765,4.5763,0,0,4.5176,4.5272,4.5306,4.5349,4.5431,4.5515,4.5636,4.5735,4.5792,4.5866,4.5966,4.6111,4.6068,4.6125,4.6123,4.6207,4.6376,4.615,4.6152,4.6188,4.6582,4.6613,4.6646,4.6356,4.6362,4.6366,4.6574,0,4.5385,4.5594,4.5596,4.5789,4.5888,4.5851,4.5955,4.6017,4.604,4.6127,4.6154,4.6255,4.6192,4.6226,4.6307,4.6338,4.6455,4.6324,4.6448,4.6453,4.6427,4.6682,4.6717,4.691,4.6601,4.6606,4.6609,0,4.5656,4.5735,4.5938,4.6002,4.6043,4.6137,4.6227,4.6312,4.638,4.6391,4.6454,4.6438,4.6561,4.6471,4.6639,4.6549,4.66,4.6623,4.6631,4.6641,4.6539,4.6696,4.6972,4.7,4.6652,4.6648,4.6645,0,4.5824,4.5983,4.6123,4.6162,4.6241,4.6307,4.6344,4.6406,4.6465,4.6544,4.6582,4.6675,4.6725,4.6798,4.6808,4.6742,4.6975,4.6887,4.6986,4.6986,4.7036,4.7032,4.7321,4.7074,4.7073,4.7073,4.7072,0,4.6056,4.618,4.6199,4.6286,4.6424,4.6424,4.6561,4.6592,4.6647,4.6739,4.6714,4.68,4.6809,4.6898,4.6907,4.7043,4.7067,4.7078,4.7078,4.7079,4.7077,4.7111,4.7096,4.708,4.7079,4.7077,4.7076,0,4.6267,4.6285,4.6435,4.6497,4.6515,4.6614,4.6667,4.6749,4.6769,4.6885,4.6912,4.6944,4.7047,4.7065,4.7187,4.7193,4.7354,4.7343,4.733,4.7328,4.7425,4.7414,4.7744,4.7786,4.7514,4.7516,4.7518,0,4.6412,4.6506,4.6577,4.6635,4.6674,4.677,4.6828,4.6833,4.6895,4.6978,4.705,4.715,4.723,4.7397,4.7431,4.7524,4.7512,4.7621,4.7526,4.7522,4.751,4.7503,4.7511,4.7639,4.7642,4.7644,4.7646,0,4.6666,4.6669,4.6754,4.6843,4.6913,4.6983,4.705,4.7099,4.7112,4.7184,4.7287,4.7349,4.7472,4.7571,4.7663,4.77,4.7676,4.7676,4.7703,4.7703,4.7691,4.7696,4.7377,4.7668,4.7666,4.7664,4.7663,4.7662,4.6846,4.6927,4.6988,4.7084,4.7133,4.7195,4.7274,4.7303,4.739,4.7489,4.7487,4.76,4.7664,4.7784,4.7827,4.7916,4.7881,4.7922,4.7931,4.794,4.7948,4.7679,4.7933,4.7933,4.7932,4.7932,4.7931,0,4.7096,4.7133,4.7221,4.7313,4.7387,4.7356,4.7427,4.7492,4.7591,4.7652,4.7731,4.7849,4.7944,4.7986,4.8079,4.8142,4.8133,4.8166,4.816,4.8169,4.7976,4.7941,4.8172,4.8172,4.8172,4.8172,4.8172,4.8172,4.7235,4.7369,4.7379,4.7537,4.7574,4.7683,4.7726,4.7782,4.7831,4.7963,4.8041,4.8067,4.812,4.8217,4.8302,4.8312,4.8346,4.8385,4.8389,4.8207,4.8183,4.816,4.8127,4.8393,4.8393,4.8574,4.8576,4.8577]},{"header":{"parameterUnit":"m.s-1","parameterCategory":1,"la1":30.2991,"la2":30.254,"lo1":-89.0895,"lo2":-89.0444,"dy":0.0017,"dx":0.0017,"nx":28,"ny":28,"refTime":"2025-06-09T09:00:00:Z","depth":0,"parameterNumber":3,"parameterNumberName":"V-component_of_WINDS"},"data":[0,0,0,0,0,0,0,0,0,0,0,0,0,0,0,0,0,0,0,0,0,0,0,0,0,0,0,0,0,0,0,0,0,0,0,0,0,0,0,0,0,0,0,0,0,0,0,0,0,0,0,0,0,0,0,0,0,0,1.8597,1.8597,0,1.8571,1.857,1.857,1.8479,1.8477,1.8475,1.8473,1.8448,1.8449,1.8451,0,0,0,0,0,0,0,0,0,0,0,0,0,1.8572,1.8573,1.8597,1.8597,1.8597,1.8571,1.857,1.857,1.848,1.8477,1.8475,1.8472,1.8448,1.8449,1.8451,0,0,0,0,0,0,0,0,0,0,0,0,0,1.8568,1.8573,1.8598,1.8548,1.8544,1.8571,1.857,1.857,1.848,1.8477,1.8474,1.8471,1.8447,1.8449,1.8451,1.8524,0,0,1.8457,1.8457,0,0,0,0,0,0,0,0,1.8568,1.8569,1.8556,1.8552,1.8547,1.8525,1.8552,1.8554,1.8481,1.8504,1.8473,1.847,1.8476,1.8476,1.8477,1.8523,1.8521,1.8457,1.8458,1.8459,1.8459,0,0,0,0,0,0,0,1.8569,1.857,1.8587,1.8556,1.855,1.8528,1.8524,1.8552,1.8508,1.8502,1.8495,1.8493,1.8473,1.8476,1.8476,1.8521,1.8457,1.8458,1.8459,1.846,1.8623,1.8626,0,0,0,0,0,0,1.8576,1.857,1.8588,1.8586,1.855,1.8531,1.8527,1.8535,1.8507,1.85,1.8496,1.8489,1.8474,1.8474,1.8475,1.8557,1.8459,1.846,1.8461,1.862,1.8624,1.8627,0,0,0,0,0,0,1.8575,1.8578,1.8589,1.8576,1.8576,1.8535,1.8545,1.8536,1.8539,1.8503,1.8495,1.8507,1.8472,1.8472,1.8512,1.8555,1.8461,1.8463,1.8616,1.8621,1.8626,1.8724,0,0,0,0,0,0,1.8575,1.8578,1.8606,1.8578,1.8577,1.8626,1.8548,1.8538,1.8542,1.8533,1.8511,1.8504,1.8469,1.8509,1.8514,1.8556,1.8464,1.8612,1.8618,1.8624,1.8717,1.8732,1.8744,0,0,0,0,0,1.8574,1.8635,1.8607,1.861,1.861,1.8629,1.8628,1.8587,1.8546,1.8573,1.8549,1.8505,1.855,1.8514,1.8518,1.8562,1.8609,1.8617,1.8624,1.871,1.8729,1.8744,0,0,0,0,0,0,1.8671,1.8631,1.8599,1.8653,1.8645,1.8613,1.8646,1.8607,1.8612,1.8603,1.8552,1.8547,1.8594,1.8582,1.8543,1.863,1.8572,1.858,1.8637,1.8654,1.8667,1.8669,1.8466,0,0,0,0,0,1.8698,1.8716,1.868,1.8731,1.8728,1.8688,1.8695,1.8663,1.8653,1.8649,1.8629,1.8621,1.8633,1.8643,1.8652,1.8714,1.8708,1.8746,1.876,1.8772,1.878,1.8811,1.8827,1.8651,1.8651,1.8651,0,0,1.8755,1.8735,1.875,1.8749,1.8739,1.8759,1.8686,1.8711,1.8725,1.8653,1.8689,1.8674,1.8662,1.8713,1.8734,1.8704,1.8827,1.8781,1.879,1.8792,1.882,1.8836,1.8851,1.8656,1.8655,1.8654,0,0,1.8868,1.8855,1.8895,1.8886,1.8871,1.8844,1.8854,1.8828,1.8815,1.885,1.8796,1.8813,1.8835,1.8829,1.8828,1.8938,1.8897,1.8943,1.9015,1.9046,1.906,1.9072,1.911,1.9125,1.8951,1.8951,1.8951,0,1.8941,1.8968,1.8921,1.8948,1.895,1.8885,1.8925,1.8919,1.8909,1.8911,1.8877,1.8903,1.8891,1.8939,1.8965,1.8967,1.8977,1.8945,1.9061,1.9073,1.9083,1.912,1.9134,1.8956,1.8956,1.8955,1.8955,0,1.9058,1.9077,1.9112,1.9102,1.9107,1.9141,1.9099,1.911,1.9078,1.9054,1.909,1.9073,1.9077,1.9086,1.9055,1.913,1.9111,1.907,1.9011,1.9107,1.914,1.9153,1.8964,1.8962,1.8961,1.8959,0,0,1.9232,1.9194,1.9208,1.9202,1.918,1.9195,1.9226,1.9229,1.9239,1.9234,1.9258,1.9278,1.924,1.9239,1.9207,1.9234,1.9322,1.919,1.9189,1.9215,1.9402,1.9432,1.9449,1.9294,1.9297,1.9298,1.9402,0,1.9339,1.9388,1.9346,1.9404,1.9421,1.9359,1.9386,1.9376,1.9355,1.9366,1.9343,1.9358,1.9306,1.9305,1.9329,1.9306,1.9358,1.9298,1.9317,1.9318,1.9321,1.9467,1.9499,1.9598,1.9415,1.9417,1.9419,0,1.9471,1.947,1.9529,1.9502,1.9508,1.9533,1.9532,1.9544,1.9531,1.9513,1.9513,1.9473,1.9501,1.9443,1.9481,1.9441,1.9446,1.9436,1.9438,1.9439,1.9374,1.947,1.9629,1.9644,1.9439,1.9437,1.9436,0,1.9591,1.9605,1.9641,1.9639,1.9609,1.9627,1.9616,1.96,1.9604,1.9603,1.9605,1.9609,1.9611,1.9614,1.9576,1.9537,1.9619,1.9558,1.9606,1.9607,1.9626,1.9625,1.9787,1.963,1.963,1.9629,1.9629,0,1.9715,1.9753,1.9695,1.9718,1.9759,1.971,1.9752,1.9735,1.9721,1.9739,1.9686,1.9704,1.9653,1.9666,1.9637,1.9673,1.9674,1.9661,1.9653,1.9666,1.9667,1.9668,1.966,1.9633,1.9633,1.9632,1.9631,0,1.9856,1.9819,1.9854,1.9822,1.9815,1.9847,1.982,1.984,1.9814,1.9838,1.9841,1.9802,1.9814,1.9777,1.9784,1.9764,1.9816,1.9797,1.982,1.9814,1.9864,1.986,2.0032,2.0052,1.9883,1.9885,1.9886,0,1.9937,1.9965,1.9936,1.9944,1.9935,1.9948,1.9952,1.9905,1.9911,1.9898,1.9919,1.9927,1.9931,1.9954,1.9927,1.9932,1.9912,1.9972,1.9912,1.9924,1.9912,1.9911,1.9913,1.9985,1.9987,1.9988,1.999,0,2.0086,2.0065,2.0072,2.0072,2.0077,2.0075,2.007,2.008,2.0029,2.0039,2.005,2.0053,2.006,2.0068,2.0067,2.0056,2.0015,2.0009,2.002,2.0033,2.0045,2.0039,1.9854,2.0005,2.0003,2.0002,2.0001,2.0001,2.0199,2.022,2.0202,2.0211,2.0202,2.0198,2.0214,2.0191,2.0199,2.02,2.0172,2.0189,2.0175,2.0169,2.0162,2.0175,2.0147,2.0164,2.0168,2.0172,2.018,2.0043,2.0174,2.0174,2.0173,2.0173,2.0173,0,2.0344,2.0329,2.0337,2.033,2.0338,2.0297,2.0289,2.0297,2.0313,2.0302,2.0307,2.032,2.0328,2.0301,2.0305,2.032,2.0302,2.0323,2.0321,2.0319,2.0205,2.0195,2.0338,2.0338,2.0338,2.0338,2.0338,2.0338,2.042,2.0453,2.0431,2.046,2.0444,2.046,2.0459,2.0455,2.0446,2.0462,2.0468,2.045,2.0433,2.0435,2.044,2.0432,2.0436,2.0464,2.0449,2.0343,2.0327,2.0312,2.0302,2.0465,2.0465,2.0562,2.0563,2.0563]}]]